Find Orsted

NORAD ID: 25635 Int'l Des: 1999-008 Owner: DMI Country: DK operational
LEORETROGRADE

リアルタイム位置

3D地球を読み込み中...

Orstedについて

説明を読み込み中...

次回通過

Passes for default location (London). Set your location on the main map for personalized predictions.

高度履歴

Loading altitude history...

軌道要素

1 25635U 99008B 26104.49597473 .00000472 00000-0 11194-3 0 9990
2 25635 96.4832 26.4744 0132865 31.6101 329.2993 14.51739931432727
Epoch: Apr 14, 2026 • Age: 14 hours

現在のステータス

高度 823.3 km
速度 7.40 km/s
衛星直下点 -61.09°S, 41.83°W
打ち上げ日 Feb 23, 1999
運用期間 27.1 years
タイプ other

技術仕様

分類 Payload
質量 62.00 kg
乾燥質量 62.00 kg
総質量 62.00 kg
長さ 0.80 m
直径 0.50 m
スパン 8.00 m
形状 Box + Ant
製造者 TERMAB
バスタイプ Orsted
フェーズステータス In Orbit
所有者/国 DMI/DK

Most Searched